www.pogodaiklimat.ru

Погода и климат >> Архив погоды >> Иран >> Ahwaz


ПОГОДА в Ahwaz

  • Прогноз погоды в Ahwaz
  • Монитор погоды в Ahwaz
  • Климат города

АРХИВ ПОГОДЫ в Ahwaz

Время (UTC), дата Ветер
(напр.,м/с)
 
Видим.   Явления Облачность Т
(С)
Тd
(С)
f
(%)
Тe
(С)
Тes
(С)
Комфортность P
(гПа)
Po
(гПа)
Тmin
(С)
Tmax
(С)
R
(мм)
R24
(мм)
S
(см)
00 14.02 З 3 4000 м гроза, ливневой дождь 10/6 900 м
[Cb cap Ac As]
+16.4 +14.4 88 +16 +16 1014.8 1012.2 5
03 14.02 СЗ 2 3500 м дымка {ливн. осадки} ясно +15.4 +13.4 88 +15 +15 1016.6 1014.0 +15.4
06 14.02 З 4 4000 м дымка {гроза, ливн. осадки} ясно +15.9 +12.6 81 +15 +19 1019.1 1016.5 0.0
09 14.02 СЗ 4 4500 м мгла 5/5 1050 м
[Cu Sc]
+18.8 +13.1 69 +20 +23 1019.8 1017.2
12 14.02 С 3 10 км 8/0
[Cs]
+22.0 +11.2 50 +24 +27 комфорт 1018.4 1015.8
15 14.02 С 1 10 км 5/0
[Ci fib]
+19.9 +11.5 58 +23 +23 комфорт 1019.8 1017.1 +22.1
18 14.02 З 1 10 км ясно +15.2 +10.9 75 +16 +16 1020.4 1017.8
21 14.02 СЗ 2 10 км ясно +15.7 +7.2 57 +16 +16 1020.2 1017.9
00 15.02 З 2 10 км ясно +13.7 +5.9 59 +13 +13 1020.2 1017.6
03 15.02 З 1 8000 м мгла 5/0
[Ci]
+10.8 +6.2 73 +11 +11 1021.1 1018.4 +10.6
06 15.02 В 1 8000 м мгла 5/0
[Ci sp]
+16.3 +7.1 54 +17 +23 1022.3 1019.7
09 15.02 З 1 10 км 8/0
[Cs]
+21.7 +6.3 37 +22 +34 комфорт 1022.2 1019.6
12 15.02 ЮЗ 1 10 км 8/0
[Cs]
+24.5 +5.4 29 +24 +29 комфорт 1021.0 1018.4
15 15.02 СВ 1 10 км 9/6 1050 м
[Cb calv Ac As]
+21.9 +6.4 37 +23 +23 комфорт 1020.5 1017.9 +24.8
18 15.02 СЗ 1 10 км {гроза, ливн. осадки} 8/5 900 м
[Cb calv Ac As]
+18.8 +9.1 53 +20 +20 1019.5 1016.9 0.2
21 15.02 С 2 10 км {ливн. осадки} 10/6 900 м
[Cb calv Ac As]
+18.6 +10.1 58 +20 +20 1022.3 1019.7
00 16.02 С 3 8000 м мгла {ливн. осадки} 10/0
[As trans]
+17.2 +13.2 77 +17 +17 1020.9 1018.3 0.1
03 16.02 С 3 7000 м дымка 9/6 900 м
[Cb calv Ac As]
+17.0 +13.6 80 +17 +17 1020.2 1017.6 +16.8
06 16.02 С 3 10 км 9/0
[Ac trans Cs]
+19.6 +13.7 69 +22 +25 комфорт 1021.1 1018.5
09 16.02 СВ 2 8000 м мгла 9/0
[Ac As Cs]
+23.7 +15.0 58 +27 +34 жарко 1019.6 1017.0
12 16.02 Ю 1 8000 м мгла 9/3 1200 м
[Sc diur, vesp Ac As Cs]
+27.2 +13.1 42 +29 +31 жарко 1017.8 1015.2
15 16.02 Ю 2 7000 м мгла 10/5 1050 м
[Cb calv As op]
+24.4 +14.7 55 +27 +27 жарко 1017.7 1015.2 +27.9
18 16.02 ЮВ 1 6000 м мгла 10/4 1200 м
[Sc Ac As]
+21.8 +14.4 63 +25 +25 комфорт 1017.9 1015.4
21 16.02 В 2 6000 м мгла 9/0
[Cs]
+20.1 +14.7 71 +23 +23 комфорт 1017.2 1014.6
00 17.02 ЮВ 2 5000 м мгла 8/0
[Cs]
+19.0 +13.9 72 +21 +21 комфорт 1016.0 1013.5
03 17.02 В 2 6000 м мгла 6/0
[Cs]
+18.3 +13.1 72 +19 +19 1015.8 1013.3 +18.1
06 17.02 ЮВ 2 5000 м мгла 8/0
[Cs]
+22.6 +9.6 44 +24 +29 комфорт 1016.5 1013.9
09 17.02 Ю 5 4000 м пыль 9/0
[Ac trans Cs]
+28.9 +10.7 32 +29 +33 жарко 1015.2 1012.6
12 17.02 Ю 6 6000 м мгла 10/5 1050 м
[Cb calv As trans]
+28.0 +11.0 35 +29 +29 жарко 1012.8 1010.3
15 17.02 Ю 2 6000 м мгла 10/5 1050 м
[Cb calv As trans]
+26.2 +10.8 38 +27 +27 жарко 1012.3 1009.7 +29.5
18 17.02 ЮВ 3 10 км 10/8 900 м
[Cb cap As op]
+24.2 +9.5 39 +25 +25 комфорт 1011.3 1008.7
21 17.02 ЮВ 2 10 км 10/8 900 м
[Cb cap As op]
+22.6 +8.4 40 +24 +24 комфорт 1009.3 1006.7
00 18.02 Ю 6 10 км 10/8 900 м
[Cb cap As op]
+23.5 +7.7 36 +24 +24 комфорт 1007.4 1004.8
03 18.02 ЮВ 4 8000 м мгла 10/8 900 м
[Cb calv As op]
+23.0 +9.6 43 +25 +25 комфорт 1007.1 1004.5 +22.3
06 18.02 ЮВ 7 6000 м в посл. час ливневой дождь 10/8 1050 м
[Cb calv As op]
+22.5 +12.5 53 +25 +25 комфорт 1007.9 1005.3 0.3
09 18.02 ЮЗ 5 2000 м в посл. час ливневой дождь {гроза} 10/8 600 м
[Cb calv As op]
+19.6 +15.7 78 +21 +22 комфорт 1011.0 1008.5
12 18.02 С 3 10 км {гроза, ливн. осадки} ясно +21.2 +6.8 39 +22 +26 комфорт 1011.8 1009.2 2
15 18.02 СВ 2 5000 м пыль ясно +18.0 +8.3 53 +19 +19 1012.5 1009.9 +25.7
18 18.02 Ю 1 8000 м мгла ясно +14.3 +9.0 70 +15 +15 1012.5 1009.9
21 18.02 СЗ 1 10 км ясно +12.6 +7.8 73 +13 +13 1012.1 1010.0
00 19.02 ЮВ 1 10 км ясно +12.9 +7.9 72 +13 +13 1011.9 1009.3
03 19.02 ЮВ 1 7000 м мгла ясно +12.5 +8.4 76 +13 +13 1012.7 1010.1 +12.2
06 19.02 Ю 2 1800 м пыль ясно +17.5 +8.0 54 +18 +24 1013.5 1010.8
09 19.02 Ю 4 1500 м пыль {ливн. осадки} 6/6 1050 м
[Cb calv]
+20.4 +6.6 41 +21 +25 комфорт 1013.6 1011.0
12 19.02 ЮЗ 3 1500 м пыль 6/6 1050 м
[Cb calv]
+21.6 +6.6 38 +22 +24 комфорт 1012.6 1010.0 0.0
15 19.02 С 3 1300 м пыль 6/6 1050 м
[Cb calv]
+19.2 +10.0 55 +20 +20 1014.3 1011.7 +22.8
18 19.02 СВ 1 3000 м пыль ясно +15.8 +10.8 72 +17 +17 1015.3 1012.7
21 19.02 СЗ 1 2500 м дымка ясно +13.4 +10.3 81 +14 +14 1015.7 1013.0
00 20.02 СЗ 1 2500 м дымка ясно +12.6 +9.5 81 +13 +13 1015.7 1013.0
03 20.02 С 1 3000 м дымка ясно +11.5 +8.9 84 +11 +11 1015.9 1013.2 +11.0
06 20.02 С 1 2000 м мгла 4/0
[Ac trans]
+16.0 +9.5 65 +17 +22 1017.0 1014.3
09 20.02 З 2 3000 м мгла 4/0
[Ci fib]
+21.2 +7.4 41 +22 +34 комфорт 1016.1 1013.5
12 20.02 З 3 7000 м мгла 8/3 1200 м
[Sc Ac trans Cs]
+22.3 +6.5 36 +23 +25 комфорт 1014.5 1011.9
15 20.02 СЗ 1 10 км 5/1 1200 м
[Cu hum Ac trans]
+19.2 +6.3 43 +21 +21 комфорт 1014.2 1011.6 +22.9
18 20.02 СЗ 1 10 км 3/0
[Ac trans]
+15.2 +7.4 60 +16 +16 1015.0 1012.3

 

Местоположение метеостанции Ahwaz (Иран): широта 31.33 долгота 48.67 высота над уровнем моря 22 м.

В архиве по умолчанию представлена погода в Ahwaz за последнюю неделю. Архивные данные за месяц целиком и за предыдущие месяцы, начиная с января 2011 года, Вы можете получить, выбрав интересующий диапазон дат из раскрывающегося списка и нажав кнопку "Ввод!".

Внимание! Время в таблицах - всемирное. Для получения местного времени необходимо прибавить поправку, которая в Ahwaz равна 3.5 ч.

Смотрите также архив погоды в соседних городах и на ближайших метеорологических станциях:

Погода в Masjed-Soleyman (Иран) (92 км)
Погода в Safi-Abad Dezful (Иран) (107 км)
Погода в Omidieh (Иран) (114 км)
Погода в Abadan (Иран) (114 км)
Погода в Basrah (Ирак) (120 км)
Погода в Basrah Airport (Ирак) (124 км)
Погода в Fao (Ирак) (151 км)
Погода в Amarah (Ирак) (153 км)
Погода в Abdaly (Кувейт) (167 км)
Погода в Bubiyan (Кувейт) (176 км)

Пояснения к столбцам:

Ветер - указаны скорость ветра в м/с - средняя за 10 мин, порывы в срок и между сроками (в фигурных скобках) и направление, откуда дует ветер: С - северный, СВ - северо-восточный, В - восточный, ЮВ - юго-восточный, Ю - южный, ЮЗ - юго-западный, З - западный, СЗ - северо-западный.
Видимость - горизонтальная дальность видимости в метрах или километрах. При видимости от 1 до 10 км при отсутствии осадков обычно наблюдается дымка, при ухудшении видимости до 1 км и менее - туман. В сухую погоду видимость может ухудшаться дымом, пылью или мглою.
Явления - указаны атмосферные явления, наблюдавшиеся в срок или в последний час перед сроком; фигурными скобками обозначены явления, наблюдавшиеся между сроками (за 1-3 часа до срока); квадратными скобками обозначены град или гололедные отложения с указанием их диаметра в мм.
Облачность - указаны через наклонную черту общая и нижняя облачность в баллах и высота нижней границы облаков в метрах; квадратными скобками обозначены формы облаков: Ci - перистые, Cs - перисто-слоистые, Cc - перисто-кучевые, Ac - высококучевые, As - высокослоистые, Sc - слоисто-кучевые, Ns - слоисто-дождевые, Cu - кучевые, Cb - кучево-дождевые. Подробнее классификацию облаков см. в Атласе облаков (PDF).
T - Температура воздуха - температура, измеренная на высоте 2 м над землей.
Td - Температура точки росы - температура, при понижении до которой содержащийся в воздухе водяной пар достигнет насыщения.
f - Относительная влажность воздуха - влажноcть воздуха, измеренная на высоте 2 м над землей.
Te - Эффективная температура - температура, которую ощущает одетый по сезону человек в тени. Характеристика душности погоды. При расчете учитывается влияние влажности воздуха и скорости ветра на теплоощущения человека.
Tes - Эффективная температура на солнце - температура, которую ощущает человек, с поправкой на солнечный нагрев. Характеристика знойности погоды. Зависит от высоты солнца над горизонтом, облачности и скорости ветра. Ночью, в пасмурную погоду, а также при ветре 12 м/с и более поправка равна нулю.
P - Атмосферное давление - приведенное к уровню моря атмосферное давление.
Po - Атмосферное давление - измеренное на уровне метеостанции атмосферное давление.
Tmin - Минимальная температура - минимум температуры воздуха на высоте 2 м над землей.
Tmax - Максимальная температура - максимум температуры воздуха на высоте 2 м над землей.
R - Количество осадков - Количество выпавших осадков за период времени, мм. При наведении курсора мыши на число - период времени, за который выпало указанное количество осадков.
R24 - Количество осадков - Количество выпавших осадков за 24 часа, мм.
S - Снежный покров - Высота снежного покрова, см. При наведении курсора мыши на число - состояние снежного покрова и степень покрытия местности в баллах.